Find Starlink 31700

NORAD ID: 59436 Int'l Des: 2024-065 Owner: SPXS Country: US Constellation: starlink operational
LEOCIRCULAR

实时位置

正在加载3D地球...

关于 Starlink 31700

正在加载描述...

即将过境

Passes for default location (London). Set your location on the main map for personalized predictions.

高度历史

Loading altitude history...

两行轨道根数

1 59436U 24065R 26126.96160847 .00002074 00000-0 82138-4 0 9991
2 59436 53.1609 10.8212 0001342 84.8375 275.2779 15.30193913117858
Epoch: May 6, 2026 • Age: 8 hours

当前状态

高度 478.0 km
速度 7.63 km/s
星下点 39.61°N, 173.91°E
发射日期 Apr 7, 2024
运行时间 2 years
类型 internet

技术详情

分类 Payload
质量 730.00 kg
干质量 700.00 kg
总质量 730.00 kg
长度 0.30 m
直径 4.10 m
跨度 29.00 m
形状 Box + pan
制造商 SPXS
平台类型 Starlink V2M
阶段状态 In Orbit
所有者/国家 SPXS/US

Most Searched